Regional Weather Roundup
Issued by NWS Kansas City/Pleasant Hill, MO

Home | Current Version | Previous Version | Graphics & Text | Print | Product List | Glossary Off
Versions: 1 2 3 4 5 6 7 8 9 10 11 12 13 14 15 16 17 18 19 20 21 22 23 24 25 26 27 28 29 30 31 32 33 34 35 36 37 38 39 40 41 42 43 44 45 46 47 48 49 50

000
ASUS43 KEAX 251904
RWREAX

WEATHER ROUNDUP FOR EASTERN KANSAS AND NORTHWEST MISSOURI
NATIONAL WEATHER SERVICE KANSAS CITY/PLEASANT HILL MO
200 PM CDT SAT APR 25 2015

KSZ040-057-103>105-MOZ028-029-037-043-252000-
...KANSAS CITY METROPOLITAN AREA...

CITY           SKY/WX    TMP DP  RH WIND       PRES   REMARKS
K.C. INTL      CLOUDY    58  57  97 N13       29.54R
K.C. DOWNTOWN  CLOUDY    65  60  84 N15       29.52R
LEES SUMMIT    CLOUDY    62  60  93 VRB6      29.52R
OLATHE - IXD   LGT RAIN  61  58  90 N17G23    29.52R
OLATHE - OJC   RAIN      62  59  90 N10       29.51R
LAWRENCE       PTSUNNY   64  57  78 N15       29.54R

$$

MOZ001>008-011>017-020>025-030>033-038>040-044>046-053-054-252000-
...NORTHERN AND CENTRAL MISSOURI...

CITY           SKY/WX    TMP DP  RH WIND       PRES   REMARKS
ST. JOSEPH     CLOUDY    54  51  90 N15       29.58R
MOSBY          CLOUDY    57  55  94 N13       29.53R
WARRENSBURG    LGT RAIN  61  55  82 W9G20     29.51R
WHITEMAN AFB   PTSUNNY   62  58  87 NW12      29.49R
CLINTON        PTSUNNY   68  55  64 W16       29.51R
SEDALIA        PTSUNNY   68  56  65 SW15G22   29.50R
WARSAW         NOT AVBL
MARSHALL       PTSUNNY   66  61  82 NW13      29.50R
CHILLICOTHE      N/A     55  53  93 N10       29.55R
MOBERLY        CLOUDY    57  54  88 NE16      29.50R
KIRKSVILLE     LGT RAIN  54  53  97 NE14      29.54R FOG

$$

MOZ041-047>049-056>058-063>065-088>090-097-252000-
...EASTERN AND SOUTHERN MISSOURI...

CITY           SKY/WX    TMP DP  RH WIND       PRES   REMARKS
ST. LOUIS INTL LGT RAIN  65  59  81 SW3       29.49R
SPIRIT OF STL  LGT RAIN  64  60  87 CALM      29.47S FOG
COLUMBIA       LGT RAIN  63  60  90 SW10      29.47R
JEFFERSON CITY CLOUDY    68  57  68 W16G25    29.46R
MEXICO         LGT RAIN N/A N/A N/A NE13      29.47
HANNIBAL       CLOUDY    55  52  88 E9        29.53R
ROLLA          PTSUNNY   70  53  54 W17G30    29.46R
LEBANON        SUNNY     72  52  49 W18G28    29.52R
OSAGE BEACH    CLOUDY    72  52  49 W12G18    29.48S
SPRINGFIELD    MOSUNNY   73  52  47 W17G26    29.53S
BRANSON        MOSUNNY   75  48  38 W13G23    29.56F
JOPLIN         MOSUNNY   75  53  46 W25G36    29.55F
WEST PLAINS    MOSUNNY   78  49  35 W18G29    29.51S

$$

IAZ060-094-KSZ022-034>040-054-083-096-NEZ052-066-093-252000-
...KANSAS...SOUTHEAST NEBRASKA AND IOWA...

CITY           SKY/WX    TMP DP  RH WIND       PRES   REMARKS
TOPEKA         PTSUNNY   66  57  72 N15       29.56R
MANHATTAN      CLOUDY    60  54  80 VRB7      29.62R
EMPORIA        CLOUDY    64  55  72 W15       29.60R
CHANUTE        PTSUNNY   70  54  56 NW18G26   29.57R
WICHITA        MOSUNNY   75  51  43 NW20G26   29.62R
OMAHA          CLOUDY    50  46  86 N12       29.70R FOG
LINCOLN        CLOUDY    50  47  89 N21       29.69R
FALLS CITY     LGT RAIN  53  50  89 N17       29.60R FOG
LAMONI         CLOUDY    47  45  93 NE20G25   29.61R FOG
DES MOINES     CLOUDY    49  43  80 NE14G24   29.68R

$$




USA.gov is the U.S. government's official web portal to all federal, state and local government web resources and services.